Regional Weather Roundup
Issued by NWS Northern Indiana

Home | Current Version | Previous Version | Text Only | Print | Product List | Glossary Off
Versions: 1 2 3 4 5 6 7 8 9 10 11 12 13 14 15 16 17 18 19 20 21 22 23 24 25 26 27 28 29 30 31 32 33 34 35 36 37 38 39 40 41 42 43 44 45 46 47 48 49 50

000
ASUS43 KIWX 220710
RWRIWX

KIWX WEATHER ROUNDUP
NATIONAL WEATHER SERVICE NORTHERN INDIANA
200 AM EST WED FEB 22 2017

NOTE: "FAIR" INDICATES FEW OR NO CLOUDS BELOW 12,000 FEET WITH NO
SIGNIFICANT WEATHER AND/OR OBSTRUCTIONS TO VISIBILITY.

* THESE STATIONS ARE NOT UNDER NWS QUALITY CONTROL. THEY ALSO MAY NOT
  REPORT WEATHER SUCH AS PRECIPITATION OR FOG.

INZ001>027-220800-
NORTHERN INDIANA

CITY           SKY/WX    TMP DP  RH WIND       PRES   REMARKS
GARY*          CLEAR     50  49  99 CALM      29.86F FOG
VALPARAISO     FOG       49  49 100 CALM      29.87S VSB 1/4
LAPORTE*       FOG       42  42  99 CALM      29.88S VSB 1/4
KNOX*          PTCLDY    48  37  66 CALM      29.87S
SOUTH BEND     FOG       43  43 100 CALM      29.87F VSB 1/4
GOSHEN         PTCLDY    49  44  83 SW5       29.87S
MONTICELLO*    PTCLDY    52  49  89 S6        29.86F
LOGANSPORT*    PTCLDY    50  46  87 S7        29.88F
ROCHESTER*     PTCLDY    54  50  87 S5        29.88S
WARSAW*        PTCLDY    52  46  82 S3        29.87F
FORT WAYNE     CLOUDY    54  50  86 S12       29.90F
HUNTINGTON*    MOCLDY    54  53  96 S6        29.89F
PERU/GRISSOM   CLOUDY    54  54 100 S8        29.87F
MARION*        MOCLDY    51  50  97 S3        29.91F FOG

$$
INZ028>050-220800-
CENTRAL INDIANA

CITY           SKY/WX    TMP DP  RH WIND       PRES   REMARKS
LAFAYETTE      PTCLDY    54  51  90 S5        29.87F
KOKOMO*        CLOUDY    50  48  93 S7        29.90F
MUNCIE*        CLOUDY    58  53  84 S8        29.90F
INDIANAPOLIS   CLOUDY    55  53  93 SE6       29.90S FOG

$$
MIZ043>046-050>051-056>058-064>065-071>073-077>080-220800-
SOUTHWEST LOWER MICHIGAN

CITY           SKY/WX    TMP DP  RH WIND       PRES   REMARKS
BATTLE CREEK   FOG       43  43 100 SW3       29.87F VSB 1/4
BENTON HARBOR  FOG       44  42  93 CALM      29.86F VSB 1/4
COLDWATER*     PTCLDY    48  48 100 SE7       29.88S FOG
HILLSDALE*     PTCLDY    45  45 100 S5        29.87F FOG
HOLLAND        FOG       47  45  93 S5        29.85F VSB 1/4
GRAND RAPIDS   FOG       45  44  97 S6        29.85F VSB 1/4
KALAMAZOO      FOG       48  45  89 S5        29.86F VSB 1
STURGIS*       PTCLDY    47  47 100 CALM      29.87S FOG
THREE RIVERS*  FOG       42  42 100 CALM      29.88S VSB<1/4

$$
OHZ001>008-015>018-024>025-220800-
NORTHWEST OHIO

CITY           SKY/WX    TMP DP  RH WIND       PRES   REMARKS
WAUSEON*       FAIR      48  48 100 S6        29.88F FOG
DEFIANCE       CLOUDY    52  48  86 S7        29.90F
FINDLAY        CLOUDY    52  46  80 CALM      29.90F
TOLEDO EXPRESS PTCLDY    49  49 100 S5        29.88F
TOLEDO METCALF MOCLDY    49  47  93 S8        29.89F
LIMA           LGT RAIN  55  54  96 S9        29.91F FOG

$$
AND FOR LAKE MICHIGAN COASTAL AND OPEN LAKE BUOY OBSERVATIONS

STATION/POSITION TEMP    WIND        PRES    VSBY  WAVE
                 AIR SEA DIR/SP/G                  HT/PER
                 (F)     (DEG/KT/KT) (MB)    (MI)  (FT/S)
CALUMET HARBOR           190/  3/  4 1010.4F
MICHIGAN CITY     54     150/  5/  7   N/A
BURNS HARBOR      51     200/  6/  7 1011.9S

$$
&&




USA.gov is the U.S. government's official web portal to all federal, state and local government web resources and services.